Location: Hawks Ness
(60.2333°N, 1.1667°W)
Time: 23:26:45
(UTC+00:00)

Cosmos 1674 - Pass Details

Date: 22 October 2019
Orbit: 496 x 518 km, 82.5° (Epoch: 20 November)

Event Time Altitude Azimuth Distance (km) Brightness Sun altitude
Rises 04:51:10 0° 173° (S) 2,580 6.3 -16.7°
Reaches altitude 10° 04:53:20 10° 166° (SSE) 1,702 5.4 -16.4°
Maximum altitude 04:56:51 42° 95° (E) 734 4.0 -16.0°
Drops below altitude 10° 05:00:25 10° 24° (NNE) 1,722 5.7 -15.5°
Sets 05:02:37 0° 18° (NNE) 2,615 6.6 -15.3°
